Regional Weather Roundup
Issued by NWS

Home | Current Version | Previous Version | Text Only | Print | Product List | Glossary Off
Versions: 1 2 3 4 5 6 7 8 9 10 11 12 13 14 15 16 17 18 19 20 21 22 23 24 25 26 27 28 29 30 31 32 33 34 35 36 37 38 39 40 41 42 43 44 45 46 47 48 49 50

115
ASUS45 KSLC 150010
RWRUT

UTAH REGIONAL WEATHER ROUNDUP
NATIONAL WEATHER SERVICE SALT LAKE CITY UT
500 PM MST THU DEC 14 2017

UTZ001>011-023>025-150100-

NORTHERN UTAH

CITY           SKY/WX    TMP DP  RH WIND       PRES   REMARKS
BRIGHAM CITY   CLEAR     35  26  70 SW3       30.43R
DUGWAY         PTCLDY    34  22  61 VRB3      30.41R
6HR MIN TEMP:  30; 6HR MAX TEMP:  41;

HILL AFB       CLEAR     30  24  79 S5        30.40R WCI  25
LOGAN          CLEAR     30  22  72 W3        30.41S
OGDEN          CLEAR     32  25  75 S5        30.40R WCI  27
SALT LAKE CITY PTCLDY    36  26  67 CALM      30.40F
TOOELE VALLEY  CLEAR     34  27  75 CALM      30.41S
WENDOVER       CLEAR     33  23  66 CALM      30.42S
HEBER CITY       N/A     32  21  64 SW6       30.33R WCI  26
WEST JORDAN    CLEAR     34  28  80 CALM      30.40S

$$

UTZ011>015-024>027-150100-

CENTRAL/NORTHEAST UTAH

CITY           SKY/WX    TMP DP  RH WIND       PRES   REMARKS
PROVO AIRPORT  CLEAR     33  27  78 CALM      30.43S
MOAB/CANYONLAN CLEAR     45  17  32 CALM      30.27R
DELTA          CLEAR     36  23  60 CALM      30.40S
PRICE          CLEAR     44  16  32 S5        30.27R
ROOSEVELT      CLEAR     36  19  51 CALM      30.35R
VERNAL         CLEAR     37  19  48 CALM      30.33R

$$

UTZ013>016-019>022-027-150100-

SOUTHERN UTAH

CITY           SKY/WX    TMP DP  RH WIND       PRES   REMARKS
BRYCE CANYON   CLEAR     38  12  34 VRB5      30.31R WCI  34
CEDAR CITY     CLEAR     37  21  52 N8        30.34R WCI  31
MILFORD        CLEAR     37  22  54 N9        30.38R WCI  30
ST GEORGE      CLEAR     56  21  25 E6        30.24S
HANKSVILLE     CLEAR     48  14  25 CALM      30.31R
BLANDING         N/A     42   0  17 N9        30.29R

$$

REGIONAL REPORTS     COLORADO/ARIZONA

CITY           SKY/WX    TMP DP  RH WIND       PRES   REMARKS
CRAIG, CO      CLEAR     20  12  71 S6        30.32S WCI  12
GRAND JUNCTION CLEAR     41  15  35 NE13      30.30R
RIFLE, CO      CLEAR     37  13  37 NW13      30.31R WCI  29
MONTROSE, CO   CLEAR     38  13  35 CALM      30.29S
CORTEZ, CO     CLEAR     44  15  31 N16G25    30.19R
COLORADO CITY    N/A     50  19  29 NW12G18   30.26S
PAGE, AZ       CLEAR     50  16  25 SE5       30.23R
GRAND CANYON   CLEAR     42  11  28 E6        30.25R
KINGMAN, AZ    CLEAR     56  20  24 N15       30.17R
FLAGSTAFF, AZ  CLEAR     39  12  33 NE18G36   30.18R WCI  30

$$

REGIONAL REPORTS    NEVADA/IDAHO/WYOMING

CITY           SKY/WX    TMP DP  RH WIND       PRES   REMARKS
LAS VEGAS, NV  PTCLDY    65  18  16 NE14      30.19S
ELY, NY        CLEAR     41  16  36 N9        30.36R
ELKO, NV       CLEAR     37  25  61 SW5       30.38S WCI  33
POCATELLO, ID  FOG       23  21  92 N5        30.44F VSB 1/2 WCI  17
BURLEY, ID     MOCLDY    26  22  84 E5        30.41F WCI  20
FORT BRIDGER,    N/A     33  11  40 W16       30.33F WCI  23
EVANSTON, WY   CLEAR     31  22  69 SW9       30.33F WCI  23
ROCK SPRINGS,  CLEAR     30  14  51 W9        30.29R WCI  22

$$




USA.gov is the U.S. government's official web portal to all federal, state and local government web resources and services.